Weather in Kizhinga

Russia / Republic of Buryatia     51°50′54″N   109°54′23″E
temp.,
°C
wind,
m/s
gust,
m/s
humid.,
%
clouds,
%
prec.,
mm/h
press.,
hPa
HPBL,
m
2 december, thu
thu223:00−5nw8167387 0.8 10151648
02:00−8nw6156894 0.8 10181316
05:00−9wnw51369100 0.1 10201258
08:00−10w51168100 0.1 1021746
11:00−8w510615 0.0 10211102
14:00−7w5955100 0.0 10201108
17:00−9wsw5118347 0.0 1021458
20:00−8wsw5118781 0.0 1021451
3 december, fri
fri323:00−6wsw5128597 0.0 1019686
02:00−6wsw6128679 0.1 1019610
05:00−5wsw6138570 0.0 1019585
08:00−5wsw61386100 0.0 1020507
11:00−3wsw61378100 0.0 1021654
14:00−1w61268100 0.0 1019770
17:00−2wsw51362100 0.0 1020488
20:00−4wsw41260100 0.0 1021291
4 december, sat
sat423:00−7sw2470100 0.0 102246
02:00−8sw237576 0.0 102248
05:00−11ssw11856 0.0 102219
08:00−12s118623 0.0 102117
11:00−5s015919 0.0 101878
14:00−2nne11547 0.0 1014118
17:00−9ssw2187100 0.0 101513
20:00−9sw2584100 0.0 101767
5 december, sun
sun523:00−6wsw3868100 0.0 1018211
02:00−6wsw3873100 0.0 1020219
05:00−5w41177100 0.0 1021362
08:00−6w4108168 0.0 1023352
11:00−4w412745 0.0 10251184
14:00−3wnw6146418 0.1 10251639
17:00−7wnw613645 0.1 1028934
20:00−8w613645 0.1 1030776
6 december, mon
mon623:00−8wsw614705 0.0 1030751
02:00−8wsw513685 0.0 1030431
05:00−10sw278913 0.0 1029152
08:00−11sw259010 0.0 102890
11:00−5wsw310624 0.0 1026426
14:00−2wsw39541 0.0 1023435
17:00−7sw37785 0.0 1025133
20:00−9sw25805 0.0 102666